EW2348 Weather Reports


Display with metric or nautical units.
time (UTC)temp
F
wind
direction
speed
MPH
gust
MPH
rain 1hr
in
rain 24hr
in
rain mn
in
humidity
%
barometer
mb
20171123215940 44 79 1.0 5.0 0.00 0.00 0.00 38 1016.2
20171123215840 44 86 2.0 5.0 0.00 0.00 0.00 38 1016.0
20171123215441 44 84 2.0 6.0 0.00 0.00 0.00 37 1016.0
20171123215340 44 85 2.0 6.0 0.00 0.00 0.00 37 1016.1
20171123215140 44 76 2.0 6.0 0.00 0.00 0.00 36 1016.1
20171123214541 45 70 3.0 5.0 0.00 0.00 0.00 35 1015.9
20171123214341 45 71 3.0 5.0 0.00 0.00 0.00 33 1016.0
20171123214240 45 77 2.0 5.0 0.00 0.00 0.00 33 1016.0
20171123214140 45 82 3.0 5.0 0.00 0.00 0.00 33 1015.9
20171123214040 45 85 2.0 7.0 0.00 0.00 0.00 34 1016.2
20171123213540 45 85 2.0 7.0 0.00 0.00 0.00 33 1016.1
20171123213341 45 85 2.0 7.0 0.00 0.00 0.00 33 1015.9
20171123213241 45 81 3.0 7.0 0.00 0.00 0.00 33 1016.0
20171123212940 45 86 3.0 6.0 0.00 0.00 0.00 33 1016.0
20171123212740 45 84 5.0 6.0 0.00 0.00 0.00 33 1016.3
20171123212640 46 84 3.0 7.0 0.00 0.00 0.00 33 1016.1
20171123212541 46 87 3.0 7.0 0.00 0.00 0.00 32 1016.2
20171123212341 46 94 3.0 7.0 0.00 0.00 0.00 33 1016.1
20171123212240 46 92 3.0 7.0 0.00 0.00 0.00 33 1016.0
20171123212140 45 90 3.0 7.0 0.00 0.00 0.00 33 1016.1
20171123212040 46 94 3.0 7.0 0.00 0.00 0.00 33 1016.0
20171123211940 46 95 3.0 7.0 0.00 0.00 0.00 33 1016.3
20171123211741 46 99 3.0 8.0 0.00 0.00 0.00 34 1016.2
20171123211541 46 101 2.0 8.0 0.00 0.00 0.00 35 1016.1
20171123211440 46 90 3.0 8.0 0.00 0.00 0.00 34 1016.1
20171123211240 46 98 3.0 8.0 0.00 0.00 0.00 36 1016.1
20171123211041 46 90 3.0 8.0 0.00 0.00 0.00 35 1016.0
20171123210841 45 89 2.0 8.0 0.00 0.00 0.00 34 1016.2
20171123210740 46 89 6.0 8.0 0.00 0.00 0.00 34 1016.2
20171123210640 46 80 5.0 7.0 0.00 0.00 0.00 34 1016.1
20171123210441 46 77 4.0 7.0 0.00 0.00 0.00 34 1016.2
20171123210241 46 76 1.0 7.0 0.00 0.00 0.00 35 1016.0
20171123210140 46 76 4.0 7.0 0.00 0.00 0.00 35 1016.1
20171123210040 46 80 3.0 7.0 0.00 0.00 0.00 36 1016.1
20171123205940 46 83 2.0 7.0 0.00 0.00 0.00 34 1016.1
20171123205840 46 87 3.0 7.0 0.00 0.00 0.00 34 1016.1
20171123205741 46 86 5.0 7.0 0.00 0.00 0.00 35 1016.1
20171123205541 46 92 3.0 7.0 0.00 0.00 0.00 36 1016.2
20171123205441 46 94 3.0 7.0 0.00 0.00 0.00 35 1016.2
20171123205340 45 95 3.0 7.0 0.00 0.00 0.00 35 1016.3
20171123205141 46 98 3.0 7.0 0.00 0.00 0.00 35 1016.3
20171123204941 46 101 3.0 7.0 0.00 0.00 0.00 36 1016.3
20171123204740 46 108 3.0 7.0 0.00 0.00 0.00 35 1016.2
20171123204640 46 109 5.0 7.0 0.00 0.00 0.00 36 1016.3
20171123204540 46 105 3.0 7.0 0.00 0.00 0.00 37 1016.2
20171123204440 46 112 3.0 7.0 0.00 0.00 0.00 37 1016.4
20171123204341 46 111 3.0 7.0 0.00 0.00 0.00 38 1016.2
20171123204241 45 109 3.0 7.0 0.00 0.00 0.00 37 1016.3
20171123204040 44 108 2.0 7.0 0.00 0.00 0.00 37 1016.2
20171123203940 44 105 3.0 7.0 0.00 0.00 0.00 37 1016.4
20171123203840 45 96 3.0 7.0 0.00 0.00 0.00 35 1016.5
20171123203740 45 97 3.0 7.0 0.00 0.00 0.00 35 1016.4
20171123203641 45 98 3.0 7.0 0.00 0.00 0.00 34 1016.3
20171123203541 45 94 3.0 7.0 0.00 0.00 0.00 33 1016.4
20171123203340 45 85 4.0 7.0 0.00 0.00 0.00 34 1016.4
20171123203140 45 86 4.0 7.0 0.00 0.00 0.00 34 1016.3
20171123202941 44 93 3.0 7.0 0.00 0.00 0.00 34 1016.1
20171123202840 45 94 3.0 7.0 0.00 0.00 0.00 32 1016.5
20171123202740 45 90 3.0 7.0 0.00 0.00 0.00 32 1016.3
20171123202541 45 94 3.0 7.0 0.00 0.00 0.00 36 1016.3
20171123202441 46 96 3.0 9.0 0.00 0.00 0.00 33 1016.4
20171123202240 45 101 3.0 9.0 0.00 0.00 0.00 35 1016.4
20171123202140 45 99 1.0 9.0 0.00 0.00 0.00 35 1016.4
20171123202040 45 103 1.0 9.0 0.00 0.00 0.00 33 1016.6
20171123201741 44 104 4.0 9.0 0.00 0.00 0.00 33 1016.5
20171123201641 45 100 5.0 9.0 0.00 0.00 0.00 33 1016.3
20171123201440 45 90 3.0 7.0 0.00 0.00 0.00 34 1016.5
20171123201240 45 78 3.0 7.0 0.00 0.00 0.00 32 1016.2
20171123201140 44 70 4.0 7.0 0.00 0.00 0.00 33 1016.3
20171123201040 45 60 5.0 7.0 0.00 0.00 0.00 34 1016.2
20171123200841 45 52 3.0 7.0 0.00 0.00 0.00 33 1016.3
20171123200640 45 62 4.0 8.0 0.00 0.00 0.00 32 1016.2
20171123200540 45 68 4.0 8.0 0.00 0.00 0.00 32 1016.2
20171123200340 45 80 4.0 8.0 0.00 0.00 0.00 32 1016.4
20171123200241 45 90 4.0 8.0 0.00 0.00 0.00 32 1016.1
20171123200141 45 101 4.0 8.0 0.00 0.00 0.00 32 1016.1
20171123195941 45 113 3.0 8.0 0.00 0.00 0.00 32 1016.1
20171123195840 45 115 4.0 8.0 0.00 0.00 0.00 31 1016.4
20171123195741 45 117 5.0 8.0 0.00 0.00 0.00 31 1016.4
20171123195541 46 109 5.0 7.0 0.00 0.00 0.00 35 1016.5
20171123195240 45 83 4.0 7.0 0.00 0.00 0.00 32 1016.4
20171123195140 46 77 2.0 7.0 0.00 0.00 0.00 33 1016.5
20171123195041 46 81 3.0 7.0 0.00 0.00 0.00 33 1016.3
20171123194540 45 107 4.0 7.0 0.00 0.00 0.00 33 1016.4
20171123194440 46 117 3.0 7.0 0.00 0.00 0.00 32 1016.3
20171123194040 45 141 3.0 7.0 0.00 0.00 0.00 32 1016.8
20171123193840 45 153 4.0 7.0 0.00 0.00 0.00 32 1016.6
20171123193740 44 160 3.0 7.0 0.00 0.00 0.00 32 1016.5
20171123193341 49 26 3.0 6.0 0.00 0.00 0.00 32 1016.8
20171123193241 47 23 0.0 6.0 0.00 0.00 0.00 33 1016.7
20171123193140 46 45 0.0 6.0 0.00 0.00 0.00 32 1016.8
20171123192940 46 65 3.0 6.0 0.00 0.00 0.00 33 1016.8
20171123192840 46 68 3.0 6.0 0.00 0.00 0.00 34 1016.6
20171123192741 46 63 1.0 6.0 0.00 0.00 0.00 36 1016.7
20171123192441 45 86 3.0 5.0 0.00 0.00 0.00 34 1016.8
20171123192340 45 83 3.0 5.0 0.00 0.00 0.00 35 1016.7
20171123192240 45 74 3.0 5.0 0.00 0.00 0.00 37 1016.7
20171123192141 46 69 3.0 5.0 0.00 0.00 0.00 39 1017.0
20171123191740 46 92 2.0 5.0 0.00 0.00 0.00 42 1016.9
20171123191640 46 95 2.0 8.0 0.00 0.00 0.00 42 1016.9
20171123191241 45 106 0.0 8.0 0.00 0.00 0.00 42 1016.9
20171123191141 45 103 0.0 8.0 0.00 0.00 0.00 42 1017.1
20171123190940 44 110 3.0 8.0 0.00 0.00 0.00 42 1016.9
20171123190840 43 109 4.0 8.0 0.00 0.00 0.00 42 1016.9
20171123190741 43 110 3.0 8.0 0.00 0.00 0.00 43 1017.1
20171123190440 44 113 4.0 8.0 0.00 0.00 0.00 43 1017.0
20171123190240 43 125 4.0 8.0 0.00 0.00 0.00 42 1017.0
20171123190040 44 142 5.0 8.0 0.00 0.00 0.00 42 1017.3
20171123185941 45 128 5.0 8.0 0.00 0.00 0.00 41 1017.2
20171123185841 46 122 1.0 7.0 0.00 0.00 0.00 42 1017.1
20171123185640 46 117 1.0 7.0 0.00 0.00 0.00 43 1017.3
20171123185440 44 106 0.0 7.0 0.00 0.00 0.00 43 1017.5
20171123185241 44 99 3.0 7.0 0.00 0.00 0.00 43 1017.3
20171123185141 43 94 3.0 7.0 0.00 0.00 0.00 43 1017.2
20171123185040 44 88 3.0 7.0 0.00 0.00 0.00 43 1017.3
20171123184840 44 82 5.0 7.0 0.00 0.00 0.00 43 1017.0
20171123184740 43 67 3.0 6.0 0.00 0.00 0.00 43 1017.5
20171123184641 45 63 5.0 6.0 0.00 0.00 0.00 42 1017.3
20171123184540 44 62 3.0 5.0 0.00 0.00 0.00 43 1017.5
20171123184440 44 69 2.0 5.0 0.00 0.00 0.00 42 1017.4
20171123184340 45 75 3.0 5.0 0.00 0.00 0.00 42 1017.4
20171123184041 45 102 1.0 7.0 0.00 0.00 0.00 44 1017.4
20171123183840 44 118 3.0 7.0 0.00 0.00 0.00 45 1017.3
20171123183740 43 126 4.0 7.0 0.00 0.00 0.00 45 1017.4
20171123183640 43 134 3.0 7.0 0.00 0.00 0.00 44 1017.3
20171123183441 43 129 2.0 7.0 0.00 0.00 0.00 46 1017.6
20171123183341 43 126 2.0 7.0 0.00 0.00 0.00 46 1017.6
20171123183240 42 127 3.0 7.0 0.00 0.00 0.00 45 1017.4
20171123183140 42 129 4.0 7.0 0.00 0.00 0.00 44 1017.5
20171123183040 43 114 4.0 5.0 0.00 0.00 0.00 43 1017.4
20171123182941 42 106 3.0 5.0 0.00 0.00 0.00 44 1017.6
20171123182840 43 94 3.0 5.0 0.00 0.00 0.00 43 1017.5
20171123182640 44 78 2.0 5.0 0.00 0.00 0.00 42 1017.7
20171123181940 44 30 3.0 5.0 0.00 0.00 0.00 38 1017.5
20171123181740 46 31 0.0 3.0 0.00 0.00 0.00 39 1017.8
20171123181640 47 39 1.0 3.0 0.00 0.00 0.00 39 1017.6
20171123181540 45 45 0.0 3.0 0.00 0.00 0.00 38 1017.6
20171123181441 46 53 1.0 3.0 0.00 0.00 0.00 38 1017.7
20171123181240 47 75 0.0 3.0 0.00 0.00 0.00 40 1017.7
20171123181040 46 78 1.0 3.0 0.00 0.00 0.00 45 1017.8
20171123180541 43 99 3.0 7.0 0.00 0.00 0.00 47 1017.8
20171123180340 43 97 3.0 7.0 0.00 0.00 0.00 47 1017.5
20171123180240 43 98 3.0 7.0 0.00 0.00 0.00 47 1017.8
20171123175840 44 276 1.0 7.0 0.00 0.00 0.00 48 1017.9
20171123175641 44 284 4.0 7.0 0.00 0.00 0.00 48 1017.9
20171123175340 45 301 2.0 7.0 0.00 0.00 0.00 51 1017.7
20171123175241 44 312 1.0 7.0 0.00 0.00 0.00 52 1017.8
20171123174840 42 315 6.0 7.0 0.00 0.00 0.00 50 1017.9
20171123174740 43 297 3.0 5.0 0.00 0.00 0.00 50 1017.8
20171123174640 44 294 2.0 5.0 0.00 0.00 0.00 50 1017.9
20171123174540 43 303 1.0 5.0 0.00 0.00 0.00 51 1018.1
20171123174341 43 281 0.0 5.0 0.00 0.00 0.00 51 1018.1
20171123174040 43 278 3.0 5.0 0.00 0.00 0.00 49 1018.2
20171123173741 44 309 3.0 4.0 0.00 0.00 0.00 49 1018.2
20171123173641 45 303 1.0 5.0 0.00 0.00 0.00 50 1018.2
20171123173540 43 299 0.0 5.0 0.00 0.00 0.00 51 1018.3
20171123173440 44 307 1.0 5.0 0.00 0.00 0.00 52 1018.4
20171123173041 44 312 1.0 6.0 0.00 0.00 0.00 54 1018.3
20171123172840 43 317 1.0 6.0 0.00 0.00 0.00 54 1018.2
20171123172440 41 347 1.0 6.0 0.00 0.00 0.00 54 1018.4
20171123172341 42 6 2.0 6.0 0.00 0.00 0.00 53 1018.0
20171123172241 41 20 3.0 6.0 0.00 0.00 0.00 53 1018.3
20171123172140 43 45 4.0 6.0 0.00 0.00 0.00 52 1018.2
20171123171941 44 58 1.0 5.0 0.00 0.00 0.00 52 1018.4
20171123171840 43 51 1.0 5.0 0.00 0.00 0.00 52 1018.3
20171123171741 43 63 2.0 5.0 0.00 0.00 0.00 53 1018.3
20171123171440 42 64 3.0 5.0 0.00 0.00 0.00 55 1018.3
20171123171340 41 75 2.0 4.0 0.00 0.00 0.00 54 1018.5
20171123171041 42 34 1.0 4.0 0.00 0.00 0.00 54 1018.4
20171123170941 43 31 3.0 4.0 0.00 0.00 0.00 53 1018.5
20171123170840 43 22 1.0 5.0 0.00 0.00 0.00 54 1018.4
20171123170441 43 27 0.0 6.0 0.00 0.00 0.00 57 1018.5
20171123170240 40 43 1.0 6.0 0.00 0.00 0.00 57 1018.7
20171123170140 40 50 3.0 6.0 0.00 0.00 0.00 56 1018.9
20171123165940 40 70 3.0 6.0 0.00 0.00 0.00 55 1018.9
20171123165840 40 80 2.0 6.0 0.00 0.00 0.00 55 1018.8
20171123165641 40 90 3.0 5.0 0.00 0.00 0.00 54 1018.8
20171123165541 40 87 4.0 6.0 0.00 0.00 0.00 54 1018.9
20171123165441 42 70 1.0 6.0 0.00 0.00 0.00 55 1018.8
20171123165240 42 61 0.0 6.0 0.00 0.00 0.00 55 1019.0
20171123164941 41 59 2.0 6.0 0.00 0.00 0.00 57 1019.0
20171123164740 41 56 1.0 6.0 0.00 0.00 0.00 57 1019.1
20171123164640 41 52 2.0 6.0 0.00 0.00 0.00 56 1019.0
20171123164341 42 64 1.0 6.0 0.00 0.00 0.00 59 1019.1
20171123164240 41 68 1.0 6.0 0.00 0.00 0.00 59 1019.1
20171123164140 41 69 1.0 6.0 0.00 0.00 0.00 60 1019.3
20171123164040 41 83 1.0 7.0 0.00 0.00 0.00 60 1019.1
20171123163940 40 87 1.0 7.0 0.00 0.00 0.00 61 1019.2
20171123163841 39 86 0.0 7.0 0.00 0.00 0.00 60 1019.2
20171123163740 40 87 1.0 7.0 0.00 0.00 0.00 61 1019.2
20171123163640 39 87 2.0 7.0 0.00 0.00 0.00 62 1019.1
20171123163240 39 79 4.0 7.0 0.00 0.00 0.00 63 1019.2
20171123163041 39 66 4.0 6.0 0.00 0.00 0.00 61 1019.4
20171123162840 40 53 3.0 5.0 0.00 0.00 0.00 63 1019.3
20171123162540 40 47 1.0 5.0 0.00 0.00 0.00 64 1019.3
20171123162440 41 48 1.0 5.0 0.00 0.00 0.00 64 1019.5
20171123162341 40 57 3.0 5.0 0.00 0.00 0.00 63 1019.5
20171123162241 39 71 2.0 5.0 0.00 0.00 0.00 63 1019.3
20171123162040 39 64 2.0 6.0 0.00 0.00 0.00 63 1019.5
20171123161740 40 82 2.0 6.0 0.00 0.00 0.00 65 1019.3
20171123161640 39 83 1.0 6.0 0.00 0.00 0.00 66 1019.5
20171123161341 39 81 2.0 6.0 0.00 0.00 0.00 67 1019.6
20171123161240 39 78 2.0 6.0 0.00 0.00 0.00 66 1019.7
20171123161140 37 78 4.0 6.0 0.00 0.00 0.00 63 1019.6
20171123161040 38 87 3.0 5.0 0.00 0.00 0.00 68 1019.6
20171123160840 38 85 2.0 3.0 0.00 0.00 0.00 68 1019.5
20171123160640 37 86 1.0 4.0 0.00 0.00 0.00 65 1019.7
20171123160441 37 82 1.0 4.0 0.00 0.00 0.00 65 1019.4
20171123160341 37 90 1.0 6.0 0.00 0.00 0.00 65 1019.5
20171123160140 37 90 1.0 6.0 0.00 0.00 0.00 65 1019.5
20171123160040 37 86 1.0 6.0 0.00 0.00 0.00 65 1019.6
20171123155740 36 77 1.0 6.0 0.00 0.00 0.00 65 1019.7
20171123155640 36 76 3.0 6.0 0.00 0.00 0.00 65 1019.8
20171123155540 36 72 2.0 6.0 0.00 0.00 0.00 64 1019.7
20171123155440 38 70 4.0 6.0 0.00 0.00 0.00 71 1019.7
20171123155241 39 50 0.0 3.0 0.00 0.00 0.00 72 1019.7
20171123155140 37 41 0.0 3.0 0.00 0.00 0.00 71 1019.7
20171123154940 36 44 1.0 3.0 0.00 0.00 0.00 66 1019.6
20171123154840 36 47 1.0 3.0 0.00 0.00 0.00 66 1019.5
20171123154640 36 37 1.0 3.0 0.00 0.00 0.00 66 1019.8
20171123154540 36 49 1.0 3.0 0.00 0.00 0.00 65 1019.9
20171123154341 36 47 1.0 3.0 0.00 0.00 0.00 65 1019.8
20171123154240 37 41 2.0 3.0 0.00 0.00 0.00 66 1019.9
20171123154040 37 49 1.0 3.0 0.00 0.00 0.00 68 1020.0
20171123153940 37 51 1.0 3.0 0.00 0.00 0.00 72 1019.9
20171123153841 37 47 1.0 3.0 0.00 0.00 0.00 73 1019.8
20171123153540 37 53 1.0 5.0 0.00 0.00 0.00 71 1020.1
20171123153440 36 65 1.0 5.0 0.00 0.00 0.00 70 1020.0
20171123153040 35 71 0.0 5.0 0.00 0.00 0.00 71 1020.0
20171123152940 35 73 0.0 5.0 0.00 0.00 0.00 71 1019.9
20171123152740 34 78 3.0 5.0 0.00 0.00 0.00 71 1020.0
20171123152640 34 83 3.0 5.0 0.00 0.00 0.00 72 1019.9
20171123152440 35 68 3.0 5.0 0.00 0.00 0.00 72 1020.0
20171123152240 36 69 1.0 4.0 0.00 0.00 0.00 73 1020.1
20171123152140 37 70 3.0 4.0 0.00 0.00 0.00 74 1020.0
20171123152040 36 86 1.0 4.0 0.00 0.00 0.00 74 1020.0
20171123151940 36 77 1.0 5.0 0.00 0.00 0.00 75 1019.9
20171123151741 34 73 1.0 5.0 0.00 0.00 0.00 77 1020.0
20171123151641 35 75 2.0 7.0 0.00 0.00 0.00 78 1020.0
20171123151540 35 77 2.0 7.0 0.00 0.00 0.00 78 1020.0
20171123151440 34 74 2.0 7.0 0.00 0.00 0.00 78 1019.8
20171123151340 34 72 0.0 7.0 0.00 0.00 0.00 77 1019.9
20171123151140 33 77 2.0 7.0 0.00 0.00 0.00 78 1019.8
20171123150940 33 72 3.0 7.0 0.00 0.00 0.00 79 1020.0
20171123150740 32 74 3.0 7.0 0.00 0.00 0.00 79 1020.0
20171123150640 32 69 2.0 6.0 0.00 0.00 0.00 80 1020.0
20171123150340 31 68 2.0 6.0 0.00 0.00 0.00 81 1020.0
20171123150141 32 60 3.0 6.0 0.00 0.00 0.00 80 1019.9
20171123150040 32 65 2.0 6.0 0.00 0.00 0.00 81 1020.1
20171123145940 32 58 3.0 7.0 0.00 0.00 0.00 81 1020.0
20171123145840 32 59 4.0 7.0 0.00 0.00 0.00 81 1020.0
20171123145740 31 56 2.0 7.0 0.00 0.00 0.00 82 1020.2
20171123145640 31 60 3.0 7.0 0.00 0.00 0.00 82 1020.0
20171123145540 31 65 3.0 7.0 0.00 0.00 0.00 82 1020.1
20171123145240 31 62 2.0 7.0 0.00 0.00 0.00 81 1020.0
20171123145140 30 61 2.0 7.0 0.00 0.00 0.00 81 1020.0
20171123144940 30 67 3.0 7.0 0.00 0.00 0.00 81 1020.1
20171123144840 30 69 3.0 7.0 0.00 0.00 0.00 81 1019.9
20171123144740 30 73 2.0 7.0 0.00 0.00 0.00 81 1020.1
20171123144540 30 72 2.0 7.0 0.00 0.00 0.00 81 1020.1
20171123144440 30 72 2.0 7.0 0.00 0.00 0.00 82 1020.2
20171123144240 30 80 2.0 7.0 0.00 0.00 0.00 81 1019.9
20171123144140 30 78 3.0 7.0 0.00 0.00 0.00 81 1020.1
20171123144040 30 70 3.0 7.0 0.00 0.00 0.00 81 1020.0
20171123143941 30 68 3.0 7.0 0.00 0.00 0.00 81 1020.1
20171123143740 31 56 4.0 7.0 0.00 0.00 0.00 80 1020.1
20171123143640 30 53 4.0 7.0 0.00 0.00 0.00 80 1020.1
20171123143440 30 50 3.0 7.0 0.00 0.00 0.00 80 1020.1
20171123143341 30 49 3.0 7.0 0.00 0.00 0.00 81 1020.1
20171123143240 30 49 3.0 7.0 0.00 0.00 0.00 80 1020.3
20171123143140 30 47 4.0 7.0 0.00 0.00 0.00 80 1020.3
20171123142840 30 61 3.0 5.0 0.00 0.00 0.00 81 1020.3
20171123142741 31 63 3.0 5.0 0.00 0.00 0.00 81 1020.2
20171123142641 31 61 3.0 5.0 0.00 0.00 0.00 82 1020.0
20171123142540 31 67 3.0 4.0 0.00 0.00 0.00 82 1020.4
20171123142240 30 67 2.0 4.0 0.00 0.00 0.00 83 1020.0
20171123142140 30 74 2.0 5.0 0.00 0.00 0.00 83 1020.1
20171123141940 30 78 2.0 5.0 0.00 0.00 0.00 84 1020.3
20171123141840 30 78 1.0 5.0 0.00 0.00 0.00 85 1020.4
20171123141740 30 78 3.0 5.0 0.00 0.00 0.00 85 1020.2
20171123141640 30 77 2.0 5.0 0.00 0.00 0.00 84 1020.2
20171123141540 30 73 2.0 5.0 0.00 0.00 0.00 85 1020.4
20171123141340 30 66 3.0 5.0 0.00 0.00 0.00 84 1020.4
20171123141240 30 37 2.0 5.0 0.00 0.00 0.00 85 1020.4
20171123141141 30 289 3.0 5.0 0.00 0.00 0.00 85 1020.3
20171123140940 30 274 1.0 3.0 0.00 0.00 0.00 86 1020.4
20171123140840 30 281 1.0 3.0 0.00 0.00 0.00 87 1020.5
20171123140740 30 282 2.0 4.0 0.00 0.00 0.00 86 1020.6
20171123140640 29 279 1.0 4.0 0.00 0.00 0.00 93 1020.4
20171123140541 29 285 1.0 4.0 0.00 0.00 0.00 93 1020.4
20171123140340 29 304 1.0 4.0 0.00 0.00 0.00 93 1020.6
20171123140240 29 80 1.0 4.0 0.00 0.00 0.00 93 1020.5
20171123140040 29 88 1.0 4.0 0.00 0.00 0.00 93 1020.6
20171123135841 30 82 3.0 4.0 0.00 0.00 0.00 95 1020.6
20171123135740 30 82 1.0 4.0 0.00 0.00 0.00 95 1020.4
20171123135540 29 39 1.0 5.0 0.00 0.00 0.00 96 1020.6
20171123135440 29 31 1.0 5.0 0.00 0.00 0.00 96 1020.7
20171123135340 29 31 0.0 5.0 0.00 0.00 0.00 97 1020.6
20171123135140 29 32 0.0 5.0 0.00 0.00 0.00 97 1020.6
20171123134940 28 44 1.0 5.0 0.00 0.00 0.00 94 1020.5
20171123134840 28 53 1.0 5.0 0.00 0.00 0.00 94 1020.7
20171123134740 28 56 2.0 5.0 0.00 0.00 0.00 94 1020.4
20171123134541 28 69 2.0 3.0 0.00 0.00 0.00 95 1020.5
20171123134240 27 85 1.0 3.0 0.00 0.00 0.00 95 1020.5
20171123134140 27 85 2.0 3.0 0.00 0.00 0.00 95 1020.5
20171123134040 27 84 1.0 3.0 0.00 0.00 0.00 95 1020.7
20171123133941 27 83 1.0 3.0 0.00 0.00 0.00 95 1020.8
20171123133740 27 84 1.0 3.0 0.00 0.00 0.00 95 1020.6
20171123133440 26 90 0.0 1.0 0.00 0.00 0.00 96 1020.4
20171123133340 26 90 0.0 1.0 0.00 0.00 0.00 96 1020.5
20171123133145 26 90 0.0 1.0 0.00 0.00 0.00 96 1020.3
20171123133055 26 90 0.0 1.0 0.00 0.00 0.00 96 1020.7
20171123132840 26 70 0.0 1.0 0.00 0.00 0.00 96 1020.4
20171123132640 26 72 0.0 1.0 0.00 0.00 0.00 96 1020.5
20171123132340 26 71 1.0 3.0 0.00 0.00 0.00 97 1020.4
20171123132240 26 71 0.0 3.0 0.00 0.00 0.00 97 1020.5
20171123132040 26 69 0.0 3.0 0.00 0.00 0.00 97 1020.4
20171123131840 26 76 1.0 3.0 0.00 0.00 0.00 97 1020.3
20171123131540 25 82 0.0 3.0 0.00 0.00 0.00 97 1020.2
20171123131240 25 135 0.0 1.0 0.00 0.00 0.00 97 1020.2
20171123131039 25 117 0.0 1.0 0.00 0.00 0.00 97 1020.2
20171123130840 25 117 0.0 1.0 0.00 0.00 0.00 97 1020.2
20171123130740 25 124 0.0 1.0 0.00 0.00 0.00 97 1019.8
20171123130640 25 112 0.0 1.0 0.00 0.00 0.00 97 1020.2
20171123130540 25 97 0.0 1.0 0.00 0.00 0.00 96 1020.0
20171123130440 25 97 0.0 1.0 0.00 0.00 0.00 96 1020.0
20171123130341 25 97 1.0 1.0 0.00 0.00 0.00 96 1020.2
20171123130040 25 356 0.0 1.0 0.00 0.00 0.00 97 1020.1
20171123125940 25 8 0.0 2.0 0.00 0.00 0.00 97 1020.2
20171123125740 25 29 0.0 2.0 0.00 0.00 0.00 97 1020.1
20171123125640 25 32 0.0 2.0 0.00 0.00 0.00 96 1020.3
20171123125540 25 31 0.0 2.0 0.00 0.00 0.00 96 1020.3
20171123125440 25 31 0.0 2.0 0.00 0.00 0.00 97 1020.3
20171123125340 25 31 0.0 2.0 0.00 0.00 0.00 97 1020.2
20171123125240 25 37 0.0 2.0 0.00 0.00 0.00 97 1020.2
20171123125040 25 68 1.0 2.0 0.00 0.00 0.00 97 1020.2
20171123124740 24 0 0.0 0.0 0.00 0.00 0.00 97 1020.3
20171123124640 24 0 0.0 0.0 0.00 0.00 0.00 97 1020.3
20171123124540 24 0 0.0 0.0 0.00 0.00 0.00 97 1020.2
20171123124340 24 0 0.0 0.0 0.00 0.00 0.00 97 1020.4
20171123124240 24 0 0.0 0.0 0.00 0.00 0.00 97 1020.4
20171123124140 24 0 0.0 0.0 0.00 0.00 0.00 97 1020.3
20171123123941 24 270 0.0 3.0 0.00 0.00 0.00 97 1020.2
20171123123841 24 90 0.0 3.0 0.00 0.00 0.00 97 1020.3
20171123123740 24 90 0.0 3.0 0.00 0.00 0.00 97 1020.3
20171123123441 24 284 0.0 3.0 0.00 0.00 0.00 97 1020.2
20171123123040 24 82 1.0 3.0 0.00 0.00 0.00 98 1020.0
20171123122940 24 86 1.0 3.0 0.00 0.00 0.00 98 1020.1
20171123122740 24 87 0.0 2.0 0.00 0.00 0.00 98 1020.1
20171123122541 24 89 0.0 2.0 0.00 0.00 0.00 98 1020.1
20171123122340 24 90 1.0 3.0 0.00 0.00 0.00 98 1020.0
20171123122140 24 90 1.0 3.0 0.00 0.00 0.00 98 1020.3
20171123122040 24 90 1.0 3.0 0.00 0.00 0.00 98 1020.1
20171123121940 24 90 1.0 3.0 0.00 0.00 0.00 98 1020.3
20171123121841 24 87 1.0 3.0 0.00 0.00 0.00 98 1020.3
20171123121640 24 84 1.0 3.0 0.00 0.00 0.00 98 1020.2
20171123121440 24 75 1.0 3.0 0.00 0.00 0.00 98 1020.3
20171123121340 24 69 1.0 3.0 0.00 0.00 0.00 98 1020.3
20171123121240 24 67 1.0 3.0 0.00 0.00 0.00 98 1020.4
20171123121040 25 55 1.0 3.0 0.00 0.00 0.00 98 1020.3
20171123120940 24 51 1.0 3.0 0.00 0.00 0.00 98 1020.4
20171123120840 25 48 2.0 3.0 0.00 0.00 0.00 98 1020.2
20171123120740 24 46 1.0 3.0 0.00 0.00 0.00 98 1020.2
20171123120640 24 38 2.0 3.0 0.00 0.00 0.00 98 1020.4
20171123120540 24 36 1.0 3.0 0.00 0.00 0.00 98 1020.4
20171123120240 24 30 1.0 2.0 0.00 0.00 0.00 98 1020.6
20171123120140 24 45 1.0 2.0 0.00 0.00 0.00 98 1020.3
20171123120040 24 46 1.0 2.0 0.00 0.00 0.00 98 1020.5
20171123115940 24 0 0.0 0.0 0.00 0.00 0.00 98 1020.6
20171123115840 24 0 0.0 0.0 0.00 0.00 0.00 98 1020.6
20171123115540 24 0 0.0 0.0 0.00 0.00 0.00 98 1020.6
20171123115440 24 0 0.0 0.0 0.00 0.00 0.00 98 1020.7
20171123115240 24 0 0.0 0.0 0.00 0.00 0.00 98 1020.6
20171123114840 24 0 0.0 0.0 0.00 0.00 0.00 97 1020.8
20171123114740 24 0 0.0 0.0 0.00 0.00 0.00 97 1020.6
20171123114640 24 0 0.0 0.0 0.00 0.00 0.00 97 1020.7
20171123114540 24 0 0.0 0.0 0.00 0.00 0.00 97 1020.6
20171123114241 23 0 0.0 0.0 0.00 0.00 0.00 97 1020.6
20171123113840 23 0 0.0 0.0 0.00 0.00 0.00 97 1020.8
20171123113640 23 0 0.0 0.0 0.00 0.00 0.00 97 1020.9
20171123113540 23 0 0.0 0.0 0.00 0.00 0.00 97 1020.8
20171123113441 23 0 0.0 0.0 0.00 0.00 0.00 97 1020.9
20171123113140 23 0 0.0 0.0 0.00 0.00 0.00 97 1020.9
20171123112940 23 0 0.0 0.0 0.00 0.00 0.00 97 1021.0
20171123112840 23 0 0.0 0.0 0.00 0.00 0.00 97 1021.0
20171123112741 23 0 0.0 0.0 0.00 0.00 0.00 97 1020.8
20171123112640 23 0 0.0 0.0 0.00 0.00 0.00 97 1021.1
20171123112540 23 0 0.0 0.0 0.00 0.00 0.00 97 1020.9
20171123112440 23 0 0.0 0.0 0.00 0.00 0.00 97 1020.8
20171123112240 23 0 0.0 0.0 0.00 0.00 0.00 97 1020.8
20171123112140 23 0 0.0 0.0 0.00 0.00 0.00 97 1021.0
20171123112041 23 0 0.0 0.0 0.00 0.00 0.00 97 1020.8
20171123111940 23 0 0.0 0.0 0.00 0.00 0.00 97 1020.8
20171123111840 23 0 0.0 0.0 0.00 0.00 0.00 97 1020.7
20171123111740 23 0 0.0 0.0 0.00 0.00 0.00 97 1021.0
20171123111640 23 0 0.0 0.0 0.00 0.00 0.00 97 1020.7
20171123111541 24 0 0.0 0.0 0.00 0.00 0.00 97 1020.9
20171123111440 24 0 0.0 0.0 0.00 0.00 0.00 97 1020.7
20171123111340 24 0 0.0 0.0 0.00 0.00 0.00 97 1021.0
20171123111140 24 0 0.0 0.0 0.00 0.00 0.00 97 1021.0
20171123110940 24 0 0.0 0.0 0.00 0.00 0.00 96 1021.0
20171123110840 23 0 0.0 0.0 0.00 0.00 0.00 97 1020.9
20171123110740 23 0 0.0 0.0 0.00 0.00 0.00 97 1021.2
20171123110540 23 0 0.0 0.0 0.00 0.00 0.00 97 1020.9
20171123110440 23 0 0.0 0.0 0.00 0.00 0.00 97 1020.8
20171123110240 22 0 0.0 0.0 0.00 0.00 0.00 97 1021.2
20171123110141 22 0 0.0 0.0 0.00 0.00 0.00 97 1021.0
20171123110040 22 0 0.0 0.0 0.00 0.00 0.00 97 1021.0
20171123105840 22 0 0.0 0.0 0.00 0.00 0.00 97 1021.1
20171123105740 23 0 0.0 0.0 0.00 0.00 0.00 97 1021.0
20171123105540 23 0 0.0 0.0 0.00 0.00 0.00 97 1021.0
20171123105440 23 0 0.0 0.0 0.00 0.00 0.00 96 1020.9
20171123105140 23 0 0.0 0.0 0.00 0.00 0.00 97 1020.9
20171123104941 23 0 0.0 0.0 0.00 0.00 0.00 97 1020.9
20171123104740 23 0 0.0 0.0 0.00 0.00 0.00 97 1020.9
20171123104440 23 0 0.0 0.0 0.00 0.00 0.00 97 1020.8
20171123104241 23 0 0.0 0.0 0.00 0.00 0.00 97 1021.1
20171123104040 23 0 0.0 0.0 0.00 0.00 0.00 97 1021.1
20171123103940 23 0 0.0 0.0 0.00 0.00 0.00 97 1021.1
20171123103840 23 0 0.0 0.0 0.00 0.00 0.00 97 1020.9
20171123103640 23 0 0.0 0.0 0.00 0.00 0.00 96 1021.1
20171123103440 23 0 0.0 0.0 0.00 0.00 0.00 96 1021.0
20171123103340 23 0 0.0 0.0 0.00 0.00 0.00 96 1020.8
20171123103240 23 0 0.0 0.0 0.00 0.00 0.00 96 1021.0
20171123103040 23 0 0.0 0.0 0.00 0.00 0.00 95 1020.8
20171123102040 23 0 0.0 0.0 0.00 0.00 0.00 95 1021.2
20171123101940 23 0 0.0 0.0 0.00 0.00 0.00 95 1021.2
20171123101840 23 0 0.0 0.0 0.00 0.00 0.00 95 1021.2
20171123101740 24 0 0.0 0.0 0.00 0.00 0.00 95 1021.2
20171123101340 24 0 0.0 0.0 0.00 0.00 0.00 95 1021.1
20171123101140 24 0 0.0 0.0 0.00 0.00 0.00 95 1021.1
20171123101040 24 0 0.0 0.0 0.00 0.00 0.00 95 1021.1
20171123100940 24 0 0.0 0.0 0.00 0.00 0.00 95 1021.1
20171123100740 23 0 0.0 0.0 0.00 0.00 0.00 95 1021.1
20171123100639 23 0 0.0 0.0 0.00 0.00 0.00 95 1021.1
20171123100539 23 0 0.0 0.0 0.00 0.00 0.00 94 1021.3
20171123100440 23 0 0.0 0.0 0.00 0.00 0.00 94 1021.2
20171123100140 23 0 0.0 0.0 0.00 0.00 0.00 94 1021.2
20171123100040 23 0 0.0 0.0 0.00 0.00 0.00 94 1021.1
20171123095940 24 0 0.0 0.0 0.00 0.00 0.00 94 1021.3
20171123095840 24 0 0.0 0.0 0.00 0.00 0.00 94 1021.2
20171123095740 24 0 0.0 0.0 0.00 0.00 0.00 94 1021.2
20171123095640 23 0 0.0 0.0 0.00 0.00 0.00 94 1021.3
20171123095440 23 0 0.0 0.0 0.00 0.00 0.00 94 1021.3
20171123095341 24 0 0.0 0.0 0.00 0.00 0.00 94 1021.3
20171123095140 24 0 0.0 0.0 0.00 0.00 0.00 94 1021.2
20171123095040 24 0 0.0 0.0 0.00 0.00 0.00 94 1021.4
20171123094940 23 0 0.0 0.0 0.00 0.00 0.00 94 1021.3
20171123094840 23 0 0.0 0.0 0.00 0.00 0.00 94 1021.5
20171123094740 23 0 0.0 0.0 0.00 0.00 0.00 94 1021.1
20171123094539 23 0 0.0 0.0 0.00 0.00 0.00 94 1021.3
20171123094340 24 0 0.0 0.0 0.00 0.00 0.00 94 1021.3
20171123094040 24 0 0.0 0.0 0.00 0.00 0.00 94 1021.2
20171123093739 25 0 0.0 0.0 0.00 0.00 0.00 94 1021.2
20171123093639 25 0 0.0 0.0 0.00 0.00 0.00 93 1021.2
20171123093340 25 0 0.0 0.0 0.00 0.00 0.00 93 1021.1
20171123093140 25 0 0.0 0.0 0.00 0.00 0.00 93 1021.4
20171123092840 25 0 0.0 0.0 0.00 0.00 0.00 93 1021.2
20171123092740 25 0 0.0 0.0 0.00 0.00 0.00 92 1021.0
20171123092540 25 0 0.0 0.0 0.00 0.00 0.00 92 1021.2
20171123092440 25 0 0.0 0.0 0.00 0.00 0.00 92 1021.2
20171123092340 25 0 0.0 0.0 0.00 0.00 0.00 92 1021.2
20171123092239 25 0 0.0 0.0 0.00 0.00 0.00 93 1021.3
20171123092140 25 0 0.0 0.0 0.00 0.00 0.00 92 1021.3
20171123092040 25 0 0.0 0.0 0.00 0.00 0.00 92 1021.2
20171123091940 25 0 0.0 0.0 0.00 0.00 0.00 92 1021.1
20171123091140 25 0 0.0 0.0 0.00 0.00 0.00 90 1021.5
20171123091040 25 0 0.0 0.0 0.00 0.00 0.00 91 1021.7
20171123090640 24 0 0.0 0.0 0.00 0.00 0.00 90 1021.5
20171123090440 24 0 0.0 0.0 0.00 0.00 0.00 90 1021.6
20171123090240 25 0 0.0 0.0 0.00 0.00 0.00 90 1021.6
20171123090140 25 0 0.0 0.0 0.00 0.00 0.00 90 1021.7
20171123085940 25 0 0.0 0.0 0.00 0.00 0.00 88 1021.6
20171123085840 25 0 0.0 0.0 0.00 0.00 0.00 88 1021.6
20171123085640 26 0 0.0 0.0 0.00 0.00 0.00 88 1021.6
20171123085540 26 0 0.0 0.0 0.00 0.00 0.00 88 1021.6
20171123085340 25 0 0.0 0.0 0.00 0.00 0.00 87 1021.5
20171123085240 26 0 0.0 0.0 0.00 0.00 0.00 87 1021.7
20171123084740 26 1 0.0 1.0 0.00 0.00 0.00 85 1021.4
20171123084639 26 1 0.0 1.0 0.00 0.00 0.00 85 1021.6
20171123084539 26 1 0.0 1.0 0.00 0.00 0.00 84 1021.4
20171123084040 26 341 0.0 1.0 0.00 0.00 0.00 84 1021.6
20171123083940 26 306 1.0 1.0 0.00 0.00 0.00 84 1021.5
20171123083640 26 270 0.0 1.0 0.00 0.00 0.00 84 1021.5
20171123083139 26 35 0.0 2.0 0.00 0.00 0.00 86 1021.4
20171123083040 26 51 0.0 2.0 0.00 0.00 0.00 86 1021.5
20171123082940 26 63 0.0 2.0 0.00 0.00 0.00 87 1021.4
20171123082640 26 72 1.0 2.0 0.00 0.00 0.00 88 1021.5
20171123082539 26 80 1.0 2.0 0.00 0.00 0.00 88 1021.5
20171123082340 26 85 1.0 2.0 0.00 0.00 0.00 88 1021.5
20171123082240 26 85 1.0 1.0 0.00 0.00 0.00 89 1021.5
20171123082140 26 90 1.0 1.0 0.00 0.00 0.00 89 1021.7
20171123082040 26 90 1.0 1.0 0.00 0.00 0.00 89 1021.6
20171123081840 26 90 1.0 1.0 0.00 0.00 0.00 89 1021.8
20171123081740 26 90 1.0 1.0 0.00 0.00 0.00 89 1021.8
20171123081640 26 90 1.0 1.0 0.00 0.00 0.00 89 1021.8
20171123081540 26 90 1.0 1.0 0.00 0.00 0.00 89 1021.7
20171123081440 26 90 0.0 1.0 0.00 0.00 0.00 89 1021.8
20171123081340 26 90 0.0 1.0 0.00 0.00 0.00 89 1021.8
20171123080939 25 90 0.0 1.0 0.00 0.00 0.00 88 1021.7
20171123080740 25 90 0.0 1.0 0.00 0.00 0.00 88 1021.8
20171123080640 25 90 0.0 1.0 0.00 0.00 0.00 86 1021.8
20171123080340 25 90 0.0 1.0 0.00 0.00 0.00 86 1021.9
20171123080240 25 90 0.0 1.0 0.00 0.00 0.00 86 1021.8
20171123080140 25 90 0.0 1.0 0.00 0.00 0.00 86 1021.8
20171123075940 25 90 0.0 1.0 0.00 0.00 0.00 86 1021.8
20171123075840 25 270 0.0 1.0 0.00 0.00 0.00 86 1021.8
20171123075639 25 270 0.0 1.0 0.00 0.00 0.00 86 1021.8
20171123075540 25 270 0.0 1.0 0.00 0.00 0.00 85 1021.8
20171123075440 25 270 0.0 1.0 0.00 0.00 0.00 85 1021.8
20171123075140 26 270 0.0 1.0 0.00 0.00 0.00 84 1021.9
20171123074839 26 270 0.0 1.0 0.00 0.00 0.00 83 1021.8
20171123074740 25 270 0.0 1.0 0.00 0.00 0.00 83 1021.9
20171123074540 25 0 0.0 0.0 0.00 0.00 0.00 82 1021.8
20171123074440 26 0 0.0 0.0 0.00 0.00 0.00 82 1022.0
20171123074339 26 0 0.0 0.0 0.00 0.00 0.00 81 1022.0
20171123074240 26 0 0.0 0.0 0.00 0.00 0.00 80 1022.0
20171123074140 26 0 0.0 0.0 0.00 0.00 0.00 79 1022.1
20171123073640 26 0 0.0 0.0 0.00 0.00 0.00 76 1021.8
20171123073540 26 0 0.0 0.0 0.00 0.00 0.00 76 1021.8
20171123073440 27 1 0.0 2.0 0.00 0.00 0.00 74 1022.0
20171123073340 27 340 0.0 2.0 0.00 0.00 0.00 74 1021.9
20171123072840 28 299 0.0 2.0 0.00 0.00 0.00 73 1021.9
20171123072740 28 302 0.0 2.0 0.00 0.00 0.00 73 1021.7
20171123072640 28 304 0.0 2.0 0.00 0.00 0.00 74 1021.7
20171123072540 28 297 0.0 2.0 0.00 0.00 0.00 74 1021.7
20171123072139 28 285 1.0 2.0 0.00 0.00 0.00 74 1021.8
20171123072039 28 297 0.0 2.0 0.00 0.00 0.00 74 1021.7
20171123071940 28 303 0.0 2.0 0.00 0.00 0.00 74 1021.5
20171123071840 28 307 0.0 2.0 0.00 0.00 0.00 74 1021.7
20171123071640 28 305 0.0 2.0 0.00 0.00 0.00 74 1021.7
20171123071540 28 306 1.0 2.0 0.00 0.00 0.00 74 1021.5
20171123071439 28 313 0.0 2.0 0.00 0.00 0.00 75 1021.5
20171123071241 28 309 0.0 2.0 0.00 0.00 0.00 75 1021.7
20171123071140 28 316 0.0 2.0 0.00 0.00 0.00 75 1021.5
20171123071040 28 311 0.0 2.0 0.00 0.00 0.00 75 1021.6
20171123070740 28 337 0.0 2.0 0.00 0.00 0.00 75 1021.6
20171123070640 28 15 0.0 2.0 0.00 0.00 0.00 75 1021.6
20171123070540 28 35 0.0 3.0 0.00 0.00 0.00 75 1021.6
20171123070239 28 59 1.0 3.0 0.00 0.00 0.00 75 1021.6
20171123070139 28 67 1.0 3.0 0.00 0.00 0.00 75 1021.7
20171123070039 28 67 1.0 3.0 0.00 0.00 0.00 75 1021.8
20171123065740 28 61 1.0 4.0 0.00 0.00 0.00 76 1021.7
20171123065540 28 59 2.0 4.0 0.00 0.00 0.00 77 1021.5
20171123065339 28 61 1.0 4.0 0.00 0.00 0.00 77 1021.6
20171123065040 28 63 2.0 4.0 0.00 0.00 0.00 79 1021.5
20171123064940 28 67 1.0 4.0 0.00 0.00 0.00 80 1021.7
20171123064840 28 68 3.0 4.0 0.00 0.00 0.00 80 1021.6
20171123064540 28 65 1.0 3.0 0.00 0.00 0.00 81 1021.6
20171123064440 28 69 1.0 3.0 0.00 0.00 0.00 82 1021.5
20171123064039 28 38 1.0 3.0 0.00 0.00 0.00 84 1021.8
20171123063740 28 133 1.0 3.0 0.00 0.00 0.00 85 1021.7
20171123063640 28 218 1.0 3.0 0.00 0.00 0.00 86 1021.8
20171123063440 28 255 1.0 3.0 0.00 0.00 0.00 88 1021.7
20171123063339 28 187 1.0 3.0 0.00 0.00 0.00 88 1021.9
20171123063040 28 279 1.0 3.0 0.00 0.00 0.00 90 1021.9
20171123062940 28 290 1.0 3.0 0.00 0.00 0.00 91 1021.7
20171123062840 28 318 1.0 3.0 0.00 0.00 0.00 91 1021.7
20171123062639 27 321 1.0 3.0 0.00 0.00 0.00 92 1021.8
20171123062440 27 301 1.0 3.0 0.00 0.00 0.00 92 1021.8
20171123062340 27 300 1.0 3.0 0.00 0.00 0.00 92 1021.7
20171123062240 27 322 1.0 3.0 0.00 0.00 0.00 92 1021.7
20171123062139 27 353 1.0 2.0 0.00 0.00 0.00 92 1021.7
20171123062039 27 5 1.0 2.0 0.00 0.00 0.00 92 1021.8
20171123061740 26 32 0.0 2.0 0.00 0.00 0.00 93 1021.9
20171123061640 26 83 0.0 1.0 0.00 0.00 0.00 92 1022.0
20171123061540 26 270 0.0 1.0 0.00 0.00 0.00 92 1022.0
20171123061339 26 90 1.0 1.0 0.00 0.00 0.00 92 1022.0
20171123061239 26 90 0.0 1.0 0.00 0.00 0.00 92 1021.9
20171123061040 26 0 0.0 0.0 0.00 0.00 0.00 92 1022.1
20171123060539 27 0 0.0 0.0 0.00 0.00 0.00 89 1022.5
20171123060440 27 0 0.0 0.0 0.00 0.00 0.00 89 1022.3
20171123060340 27 0 0.0 0.0 0.00 0.00 0.00 89 1022.2
20171123060240 27 0 0.0 0.0 0.00 0.00 0.00 89 1022.3
20171123060140 27 0 0.0 0.0 0.00 0.00 0.00 89 1022.4
20171123055939 27 0 0.0 0.0 0.00 0.00 0.00 89 1022.2
20171123055740 27 0 0.0 0.0 0.00 0.00 0.00 89 1022.3
20171123055540 27 0 0.0 0.0 0.00 0.00 0.00 88 1022.5
20171123055339 27 0 0.0 0.0 0.00 0.00 0.00 88 1022.5
20171123055239 27 0 0.0 0.0 0.00 0.00 0.00 88 1022.5
20171123054639 27 0 0.0 0.0 0.00 0.00 0.00 86 1022.4
20171123054340 27 0 0.0 0.0 0.00 0.00 0.00 86 1022.7
20171123054140 26 0 0.0 0.0 0.00 0.00 0.00 86 1022.6
20171123053640 26 0 0.0 0.0 0.00 0.00 0.00 85 1022.6
20171123053440 26 0 0.0 0.0 0.00 0.00 0.00 85 1022.5
20171123053240 26 0 0.0 0.0 0.00 0.00 0.00 85 1022.2
20171123053140 26 0 0.0 0.0 0.00 0.00 0.00 85 1022.5
20171123053040 26 0 0.0 0.0 0.00 0.00 0.00 85 1022.6
20171123052940 26 0 0.0 0.0 0.00 0.00 0.00 85 1022.4
20171123052740 27 0 0.0 0.0 0.00 0.00 0.00 84 1022.7
20171123052640 27 0 0.0 0.0 0.00 0.00 0.00 84 1022.4
20171123052440 27 0 0.0 0.0 0.00 0.00 0.00 83 1022.6
20171123052340 27 0 0.0 0.0 0.00 0.00 0.00 83 1022.4
20171123052239 27 0 0.0 0.0 0.00 0.00 0.00 83 1022.7
20171123052040 27 0 0.0 0.0 0.00 0.00 0.00 83 1022.7
20171123051840 28 0 0.0 0.0 0.00 0.00 0.00 83 1022.6
20171123051740 28 0 0.0 0.0 0.00 0.00 0.00 83 1022.6
20171123051540 28 0 0.0 0.0 0.00 0.00 0.00 83 1022.6
20171123051439 28 0 0.0 0.0 0.00 0.00 0.00 83 1022.7
20171123051340 28 0 0.0 0.0 0.00 0.00 0.00 83 1022.7
20171123051140 28 0 0.0 0.0 0.00 0.00 0.00 83 1022.7
20171123050839 28 0 0.0 0.0 0.00 0.00 0.00 82 1022.8
20171123050739 28 0 0.0 0.0 0.00 0.00 0.00 82 1022.9
20171123050540 28 0 0.0 0.0 0.00 0.00 0.00 82 1022.9
20171123050340 28 0 0.0 0.0 0.00 0.00 0.00 82 1022.6
20171123050240 28 270 0.0 1.0 0.00 0.00 0.00 82 1022.5
20171123050140 28 327 0.0 1.0 0.00 0.00 0.00 82 1022.8
20171123045840 28 289 0.0 2.0 0.00 0.01 0.00 87 1022.6
20171123045239 28 285 0.0 2.0 0.00 0.01 0.00 85 1022.7
20171123045140 28 277 1.0 2.0 0.00 0.01 0.00 85 1022.8
20171123045040 28 277 0.0 1.0 0.00 0.01 0.00 85 1022.9
20171123044739 28 272 0.0 1.0 0.00 0.01 0.00 85 1022.9
20171123044639 28 270 0.0 1.0 0.00 0.01 0.00 85 1023.0
20171123044440 28 330 1.0 1.0 0.00 0.01 0.00 84 1022.8
20171123044340 28 318 0.0 1.0 0.00 0.01 0.00 84 1022.8
20171123044240 28 306 0.0 2.0 0.00 0.01 0.00 83 1022.7
20171123044140 28 296 0.0 2.0 0.00 0.01 0.00 83 1022.7
20171123044039 28 291 0.0 2.0 0.00 0.01 0.00 83 1022.8
20171123043939 28 287 0.0 2.0 0.00 0.01 0.00 83 1022.9
20171123043740 28 287 0.0 2.0 0.00 0.01 0.00 82 1022.8
20171123043640 28 288 0.0 2.0 0.00 0.01 0.00 82 1022.8
20171123043440 28 280 1.0 2.0 0.00 0.01 0.00 81 1023.1
20171123043240 28 282 1.0 2.0 0.00 0.01 0.00 79 1022.9
20171123043040 28 296 1.0 1.0 0.00 0.01 0.00 77 1023.1
20171123042740 29 290 1.0 3.0 0.00 0.01 0.00 81 1023.0
20171123042439 29 287 0.0 3.0 0.00 0.01 0.00 81 1022.9
20171123042340 29 287 0.0 3.0 0.00 0.01 0.00 81 1022.9
20171123042240 29 280 0.0 3.0 0.00 0.01 0.00 81 1023.2
20171123042040 29 273 0.0 3.0 0.00 0.01 0.00 82 1023.0
20171123041739 29 284 0.0 1.0 0.00 0.01 0.00 82 1023.3
20171123041440 29 278 0.0 1.0 0.00 0.01 0.00 82 1023.1
20171123041240 29 275 0.0 1.0 0.00 0.01 0.00 82 1023.0
20171123041140 29 276 0.0 1.0 0.00 0.01 0.00 82 1023.1
20171123041040 29 275 0.0 1.0 0.00 0.01 0.00 82 1023.1
20171123040939 29 270 0.0 1.0 0.00 0.01 0.00 82 1023.0
20171123040839 29 270 0.0 1.0 0.00 0.01 0.00 83 1023.2
20171123040640 29 281 0.0 1.0 0.00 0.01 0.00 83 1023.2
20171123040439 29 285 0.0 1.0 0.00 0.01 0.00 83 1023.2
20171123040040 29 294 0.0 3.0 0.00 0.01 0.00 83 1022.8
20171123035939 29 294 0.0 3.0 0.00 0.01 0.00 83 1023.0
20171123035739 29 288 1.0 3.0 0.00 0.01 0.00 83 1022.9
20171123035340 29 282 1.0 3.0 0.00 0.01 0.00 82 1023.1
20171123035140 29 280 0.0 1.0 0.00 0.01 0.00 81 1022.8
20171123035039 29 283 0.0 1.0 0.00 0.01 0.00 79 1022.8
20171123034939 29 288 1.0 1.0 0.00 0.01 0.00 79 1022.8
20171123034840 29 295 0.0 1.0 0.00 0.01 0.00 78 1022.8
20171123034239 29 298 1.0 1.0 0.00 0.01 0.00 76 1022.8
20171123034140 29 315 0.0 1.0 0.00 0.01 0.00 75 1022.9
20171123033540 30 311 0.0 1.0 0.00 0.01 0.00 75 1023.0
20171123033440 30 301 0.0 1.0 0.00 0.01 0.00 74 1022.9
20171123033039 30 324 1.0 1.0 0.00 0.01 0.00 75 1022.9
20171123032939 30 334 0.0 1.0 0.00 0.01 0.00 75 1022.8
20171123032839 30 311 1.0 2.0 0.00 0.01 0.00 76 1023.0
20171123032740 30 308 0.0 2.0 0.00 0.01 0.00 76 1022.8
20171123032640 30 311 0.0 2.0 0.00 0.01 0.00 76 1023.0
20171123032540 30 312 0.0 2.0 0.00 0.01 0.00 76 1023.0
20171123032339 30 306 0.0 2.0 0.00 0.01 0.00 74 1022.9
20171123032239 30 307 0.0 2.0 0.00 0.01 0.00 74 1022.9
20171123032140 30 307 1.0 2.0 0.00 0.01 0.00 74 1022.9
20171123031940 30 306 1.0 2.0 0.00 0.01 0.00 74 1022.9
20171123031639 30 327 0.0 3.0 0.00 0.01 0.00 75 1022.8
20171123031540 30 326 0.0 3.0 0.00 0.01 0.00 74 1022.9
20171123031340 30 338 1.0 3.0 0.00 0.01 0.00 74 1023.1
20171123031239 30 347 1.0 3.0 0.00 0.01 0.00 74 1023.0
20171123031040 31 332 0.0 3.0 0.00 0.01 0.00 74 1022.9
20171123030940 31 318 0.0 3.0 0.00 0.01 0.00 74 1023.1
20171123030839 31 315 0.0 3.0 0.00 0.01 0.00 74 1023.1
20171123030739 30 299 0.0 2.0 0.00 0.01 0.00 73 1023.1
20171123030539 30 290 0.0 2.0 0.00 0.01 0.00 73 1022.9
20171123030139 31 282 1.0 2.0 0.00 0.01 0.00 73 1023.1
20171123025740 30 299 0.0 2.0 0.00 0.01 0.00 72 1023.2
20171123025640 31 290 0.0 2.0 0.00 0.01 0.00 72 1023.3
20171123025540 31 283 0.0 2.0 0.00 0.01 0.00 72 1023.0
20171123025339 30 268 0.0 3.0 0.00 0.01 0.00 72 1023.0
20171123025239 31 270 0.0 3.0 0.00 0.01 0.00 71 1023.1
20171123025139 31 278 0.0 3.0 0.00 0.01 0.00 71 1023.1
20171123025040 31 283 0.0 3.0 0.00 0.01 0.00 71 1023.0
20171123024840 31 290 0.0 3.0 0.00 0.01 0.00 71 1023.1
20171123024740 31 286 0.0 3.0 0.00 0.01 0.00 71 1023.1
20171123024639 31 286 1.0 3.0 0.00 0.01 0.00 71 1023.1
20171123024539 31 288 1.0 3.0 0.00 0.01 0.00 71 1023.0
20171123024040 31 279 1.0 2.0 0.00 0.01 0.00 70 1023.1
20171123023939 31 276 1.0 2.0 0.00 0.01 0.00 70 1023.0
20171123023740 31 275 1.0 2.0 0.00 0.01 0.00 70 1023.2
20171123023640 31 275 1.0 2.0 0.00 0.01 0.00 70 1023.2
20171123023439 31 282 1.0 2.0 0.00 0.01 0.00 70 1023.0
20171123023339 31 274 1.0 2.0 0.00 0.01 0.00 70 1023.0
20171123023040 31 281 1.0 2.0 0.00 0.01 0.00 69 1023.0
20171123022940 31 290 1.0 3.0 0.00 0.01 0.00 69 1023.1
20171123022140 31 300 1.0 5.0 0.00 0.01 0.00 69 1023.3
20171123022039 31 302 1.0 5.0 0.00 0.01 0.00 69 1023.3
20171123021939 31 298 2.0 5.0 0.00 0.01 0.00 69 1023.2
20171123021340 31 275 2.0 5.0 0.00 0.01 0.00 69 1023.3
20171123021240 31 277 3.0 5.0 0.00 0.01 0.00 69 1023.4
20171123021140 31 280 0.0 4.0 0.00 0.01 0.00 69 1023.2
20171123020740 31 276 2.0 4.0 0.00 0.01 0.00 69 1023.3
20171123020640 31 279 1.0 4.0 0.00 0.01 0.00 69 1023.1
20171123020540 31 287 1.0 4.0 0.00 0.01 0.00 69 1023.3
20171123020440 31 296 1.0 4.0 0.00 0.01 0.00 69 1023.4
20171123020339 31 300 1.0 4.0 0.00 0.01 0.00 69 1023.3
20171123020240 31 301 1.0 4.0 0.00 0.01 0.00 69 1023.4
20171123020140 31 306 1.0 4.0 0.00 0.01 0.00 69 1023.4
20171123020040 31 317 1.0 4.0 0.00 0.01 0.00 69 1023.2
20171123015539 31 322 2.0 4.0 0.00 0.01 0.00 69 1023.5
20171123015440 31 316 2.0 4.0 0.00 0.01 0.00 69 1023.6
20171123015340 31 314 1.0 4.0 0.00 0.01 0.00 69 1023.4
20171123015240 31 313 1.0 4.0 0.00 0.01 0.00 69 1023.5
20171123015040 31 302 2.0 4.0 0.00 0.01 0.00 69 1023.4
20171123014939 31 299 2.0 3.0 0.00 0.01 0.00 69 1023.5
20171123014440 31 284 1.0 3.0 0.00 0.01 0.00 68 1023.5
20171123014140 31 292 1.0 3.0 0.00 0.01 0.00 68 1023.5
20171123014040 31 295 1.0 3.0 0.00 0.01 0.00 68 1023.6
20171123013739 32 315 1.0 4.0 0.00 0.01 0.00 68 1023.6
20171123013639 32 317 1.0 4.0 0.00 0.01 0.00 68 1023.5
20171123013439 32 314 1.0 4.0 0.00 0.01 0.00 67 1023.5
20171123013340 32 318 1.0 4.0 0.00 0.01 0.00 68 1023.5
20171123013139 32 322 1.0 4.0 0.00 0.01 0.00 68 1023.5
20171123012939 32 320 2.0 3.0 0.00 0.01 0.00 70 1023.4
20171123012839 32 313 1.0 3.0 0.00 0.01 0.00 70 1023.4
20171123012739 32 310 1.0 3.0 0.00 0.01 0.00 70 1023.6
20171123012640 32 313 1.0 3.0 0.00 0.01 0.00 70 1023.6
20171123012540 32 317 1.0 3.0 0.00 0.01 0.00 70 1023.5
20171123012339 32 313 1.0 3.0 0.00 0.01 0.00 70 1023.7
20171123012039 32 312 1.0 3.0 0.00 0.01 0.00 69 1023.7
20171123011740 32 305 1.0 3.0 0.00 0.01 0.00 69 1023.6
20171123011639 32 302 1.0 3.0 0.00 0.01 0.00 69 1023.4
20171123011539 32 299 2.0 3.0 0.00 0.01 0.00 70 1023.4
20171123011439 32 304 1.0 3.0 0.00 0.01 0.00 72 1023.7
20171123011339 32 298 1.0 3.0 0.00 0.01 0.00 72 1023.6
20171123011140 32 299 1.0 3.0 0.00 0.01 0.00 72 1023.4
20171123011040 32 300 1.0 3.0 0.00 0.01 0.00 73 1023.5
20171123010839 32 316 2.0 3.0 0.00 0.01 0.00 74 1023.4
20171123010639 32 324 1.0 1.0 0.00 0.01 0.00 75 1023.7
20171123010440 31 320 1.0 1.0 0.00 0.01 0.00 75 1023.4
20171123010339 31 322 1.0 1.0 0.00 0.01 0.00 75 1023.4
20171123010139 31 311 1.0 1.0 0.00 0.01 0.00 75 1023.4
20171123005940 31 294 1.0 1.0 0.00 0.01 0.00 74 1023.5
20171123005639 31 282 0.0 1.0 0.00 0.01 0.00 75 1023.4
20171123005340 31 279 1.0 1.0 0.00 0.01 0.00 75 1023.5
20171123005140 31 279 0.0 1.0 0.00 0.01 0.00 75 1023.5
20171123004939 31 285 1.0 1.0 0.00 0.01 0.00 75 1023.5
20171123004740 31 286 1.0 1.0 0.00 0.01 0.00 75 1023.5
20171123004639 31 282 1.0 1.0 0.00 0.01 0.00 75 1023.6
20171123004539 31 279 0.0 1.0 0.00 0.01 0.00 75 1023.7
20171123004439 31 279 1.0 1.0 0.00 0.01 0.00 75 1023.6
20171123004339 31 280 1.0 1.0 0.00 0.01 0.00 75 1023.5
20171123004239 31 281 1.0 1.0 0.00 0.01 0.00 75 1023.4
20171123004140 31 278 1.0 1.0 0.00 0.01 0.00 75 1023.5
20171123003839 31 270 1.0 1.0 0.00 0.01 0.00 75 1023.8
20171123003739 31 270 1.0 1.0 0.00 0.01 0.00 74 1023.5
20171123003639 31 270 1.0 1.0 0.00 0.01 0.00 74 1023.5
20171123003540 31 270 1.0 1.0 0.00 0.01 0.00 74 1023.6
20171123003440 31 270 0.0 1.0 0.00 0.01 0.00 74 1023.6
20171123003340 31 0 0.0 0.0 0.00 0.01 0.00 74 1023.6
20171123003239 31 0 0.0 0.0 0.00 0.01 0.00 74 1023.6
20171123002739 31 0 0.0 0.0 0.00 0.01 0.00 74 1023.4
20171123002639 31 0 0.0 0.0 0.00 0.01 0.00 74 1023.4
20171123002540 31 270 0.0 1.0 0.00 0.01 0.00 74 1023.7
20171123002340 31 270 0.0 1.0 0.00 0.01 0.00 74 1023.6
20171123002139 31 270 0.0 1.0 0.00 0.01 0.00 73 1023.6
20171123002039 31 270 0.0 1.0 0.00 0.01 0.00 73 1023.5
20171123001939 31 270 0.0 1.0 0.00 0.01 0.00 72 1023.5
20171123001839 31 270 0.0 1.0 0.00 0.01 0.00 72 1023.6
20171123001740 31 270 0.0 1.0 0.00 0.01 0.00 72 1023.7
20171123001540 31 270 0.0 1.0 0.00 0.01 0.00 72 1023.7
20171123001439 31 270 0.0 1.0 0.00 0.01 0.00 72 1023.6
20171123001140 31 270 0.0 1.0 0.00 0.01 0.00 72 1023.5
20171123000940 31 270 1.0 1.0 0.00 0.01 0.00 72 1023.5
20171123000840 31 270 0.0 1.0 0.00 0.01 0.00 72 1023.6
20171123000739 31 0 0.0 0.0 0.00 0.01 0.00 71 1023.6
20171123000639 31 0 0.0 0.0 0.00 0.01 0.00 71 1023.5
20171123000540 31 0 0.0 0.0 0.00 0.01 0.00 71 1023.5
20171123000440 31 0 0.0 0.0 0.00 0.01 0.00 71 1023.7
20171123000239 31 0 0.0 0.0 0.00 0.01 0.00 71 1023.6
20171123000039 31 0 0.0 0.0 0.00 0.01 0.00 71 1023.7
20171122235939 31 0 0.0 0.0 0.00 0.01 0.00 71 1023.6
20171122235840 31 0 0.0 0.0 0.00 0.01 0.00 71 1023.8
20171122235640 31 0 0.0 0.0 0.00 0.01 0.00 71 1023.6
20171122235539 31 0 0.0 0.0 0.00 0.01 0.00 71 1023.6
20171122235340 31 0 0.0 0.0 0.00 0.01 0.00 70 1023.5
20171122235140 31 0 0.0 0.0 0.00 0.01 0.00 70 1023.4
20171122234539 32 0 0.0 0.0 0.00 0.01 0.00 68 1023.3
20171122234440 32 0 0.0 0.0 0.00 0.01 0.00 68 1023.4
20171122234340 32 0 0.0 0.0 0.00 0.01 0.00 69 1023.4
20171122234240 32 0 0.0 0.0 0.00 0.01 0.00 68 1023.3
20171122234140 32 0 0.0 0.0 0.00 0.01 0.00 69 1023.4
20171122234039 32 0 0.0 0.0 0.00 0.01 0.00 69 1023.5
20171122233939 32 0 0.0 0.0 0.00 0.01 0.00 67 1023.5
20171122233839 32 0 0.0 0.0 0.00 0.01 0.00 67 1023.5
20171122233539 32 0 0.0 0.0 0.00 0.01 0.00 67 1023.6
20171122233439 32 0 0.0 0.0 0.00 0.01 0.00 67 1023.5
20171122233139 32 0 0.0 0.0 0.00 0.01 0.00 67 1023.5
20171122233040 32 0 0.0 0.0 0.00 0.01 0.00 66 1023.5
20171122232840 32 0 0.0 0.0 0.00 0.01 0.00 66 1023.5
20171122232740 32 270 0.0 1.0 0.00 0.01 0.00 66 1023.7
20171122232640 32 270 0.0 1.0 0.00 0.01 0.00 66 1023.6
20171122232539 32 270 0.0 1.0 0.00 0.01 0.00 66 1023.6
20171122232440 32 270 0.0 1.0 0.00 0.01 0.00 66 1023.7
20171122232340 32 270 0.0 1.0 0.00 0.01 0.00 66 1023.9
20171122231939 32 270 0.0 1.0 0.00 0.01 0.00 66 1023.7
20171122231839 32 270 0.0 1.0 0.00 0.01 0.00 65 1023.8
20171122231640 32 0 0.0 0.0 0.00 0.01 0.00 65 1023.9
20171122231540 32 0 0.0 0.0 0.00 0.01 0.00 65 1023.8
20171122231340 33 0 0.0 0.0 0.00 0.01 0.00 65 1023.9
20171122230740 33 270 0.0 1.0 0.00 0.01 0.00 64 1023.8
20171122230539 33 274 0.0 1.0 0.00 0.01 0.00 64 1024.0
20171122230439 33 275 0.0 1.0 0.00 0.01 0.00 64 1024.0
20171122230240 33 281 1.0 1.0 0.00 0.01 0.00 64 1023.8
20171122230040 33 285 0.0 1.0 0.00 0.01 0.00 64 1023.7
20171122225739 33 299 0.0 1.0 0.00 0.01 0.00 64 1023.8
20171122225639 33 307 0.0 1.0 0.00 0.01 0.00 64 1024.0
20171122225539 33 300 0.0 1.0 0.00 0.01 0.00 64 1023.8
20171122225240 33 270 0.0 1.0 0.00 0.01 0.00 64 1024.0
20171122225039 33 308 0.0 1.0 0.00 0.01 0.00 64 1024.0
20171122224939 33 308 0.0 1.0 0.00 0.01 0.00 64 1023.9
20171122224839 33 308 0.0 1.0 0.00 0.01 0.00 64 1024.1
20171122224639 33 280 0.0 3.0 0.00 0.01 0.00 64 1024.0
20171122224239 33 269 0.0 3.0 0.00 0.01 0.00 64 1024.0
20171122223939 34 265 0.0 3.0 0.00 0.01 0.00 64 1024.1
20171122223739 34 269 1.0 3.0 0.00 0.01 0.00 64 1024.1
20171122223640 33 269 2.0 3.0 0.00 0.01 0.00 64 1024.1
20171122223540 33 272 1.0 2.0 0.00 0.01 0.00 64 1023.8
20171122223339 33 274 1.0 2.0 0.00 0.01 0.00 64 1024.0
20171122223140 33 277 0.0 1.0 0.00 0.01 0.00 63 1024.3
20171122222839 33 274 1.0 1.0 0.00 0.01 0.00 63 1024.1
20171122222540 34 270 0.0 1.0 0.00 0.01 0.00 61 1023.9
20171122222440 34 270 0.0 1.0 0.00 0.01 0.00 61 1024.0
20171122222339 34 270 0.0 1.0 0.00 0.01 0.00 60 1023.9
20171122222139 34 270 0.0 1.0 0.00 0.01 0.00 59 1024.0
20171122221939 34 270 0.0 1.0 0.00 0.01 0.00 58 1023.9
20171122221640 34 270 0.0 2.0 0.00 0.01 0.00 57 1023.8
20171122221439 34 270 0.0 2.0 0.00 0.01 0.00 57 1024.1
20171122221239 35 270 0.0 2.0 0.00 0.01 0.00 57 1023.8
20171122220840 35 268 0.0 2.0 0.00 0.01 0.00 58 1024.0
20171122220740 35 268 0.0 3.0 0.00 0.01 0.00 58 1024.0
20171122220639 35 266 1.0 3.0 0.00 0.01 0.00 55 1023.8
20171122220540 35 264 1.0 3.0 0.00 0.01 0.00 55 1024.1
20171122220340 35 261 1.0 3.0 0.00 0.01 0.00 55 1023.9
20171122220039 35 255 1.0 3.0 0.00 0.01 0.00 55 1023.9